General Francisco J Mujica International Airport
MMMM : now visible

Airfield :











YOU CAN JOIN US ON...

 
LOGIN :

Register | Disclaimer

   EN    FR    IT 

 









Legend :    VFR   Marginal VFR   IFR   Intensive IFR   Very Intensive IFR
Visi :
Ceiling :
>= 8 km
>= 3000ft
5 to 8 km
1000 to 3000 ft
1500m to 5 km
500 to 1000 ft
800 to 1500m
200 to 500 ft
< 800m
< 200 ft
Symbols :   Thunderstorms  Fog  Heavy snow  Heavy precipitations  Wind > 20 kt






- Airport Elevation : 6033 ft
- IATA code : MLM


MMMM - General Francisco J Mujica International

CURRENT METAR :
  • 050552Z 03011KT 7SM SKC 21/11 A3012 RMK SLP027 52046 903 HZY

EXPIRED METARs :
  • 050440Z 04005KT 7SM SKC 22/12 A3011 RMK HZY
  • 050350Z 05006KT 7SM SKC 23/12 A3008 RMK CU

TAF TAF MMMM
Valid from the 05 at 06:00 until the 06 at 12:00 UTC


050429Z 0506/0612 05006KT P6SM SKC
BECMG 0518/0519 04010KT SCT030
FM060100 00000KT P6SM SKC
MMFR FIR / North America



MET'MAP, your aeronautical weather chart ! - Copyright ORBIFLY December 2007 - Disclaimer

ORBIFLY MET'MAP TEAM :

Programming & Development : Alexandra Zaïnal
Concept & original design : Baudouin d'Aumeries
Assistance for programming : Marc-Olivier Méhu
Technical & hardware support : Manuel Goepfert

Contact : metmap@orbifly.com




SOURCES & CREDITS :

   NOAA       Earth
Advisory